Regional Weather Roundup
Issued by NWS

Home | Current Version | Previous Version | Text Only | Print | Product List | Glossary Off
Versions: 1 2 3 4 5 6 7 8 9 10 11 12 13 14 15 16 17 18 19 20 21 22 23 24 25 26 27 28 29 30 31 32 33 34 35 36 37 38 39 40 41 42 43 44 45 46 47 48 49 50

000
ASUS43 KTOP 250208
RWRKS

WEATHER ROUNDUP FOR KANSAS
NATIONAL WEATHER SERVICE GOODLAND KS
900 PM CDT FRI OCT 24 2014

NOTE:  "FAIR" INDICATES FEW OR NO CLOUDS BELOW 12,000 FEET WITH NO
SIGNIFICANT WEATHER AND/OR OBSTRUCTIONS TO VISIBILITY.

KSZ001>006-013>018-027>032-041>047-250300-
NORTHWEST KANSAS

CITY           SKY/WX    TMP DP  RH WIND       PRES   REMARKS
GOODLAND       CLEAR     60  33  36 SE3       30.10R
HAYS           CLEAR     66  50  55 CALM      30.01S
HILL CITY      CLEAR     58  46  64 W5        30.02R
RUSSELL        CLEAR     66  53  63 S10       29.99R
$$

KSZ061>065-074>080-084>089-250300-
SOUTHWEST KANSAS

CITY           SKY/WX    TMP DP  RH WIND       PRES   REMARKS
DODGE CITY     CLEAR     68  52  56 S10       30.06R
ELKHART          N/A     72  39  30 S9          N/A
GARDEN CITY    CLEAR     66  45  46 SE6       30.06R
GREAT BEND     CLEAR     64  55  72 S7        30.02S
LIBERAL        CLEAR     68  45  42 S9        30.08R
PRATT          CLEAR     66  59  77 S6        30.05R
$$

KSZ066>073-081>083-090>101-250300-
SOUTHEAST KANSAS

CITY           SKY/WX    TMP DP  RH WIND       PRES   REMARKS
CHANUTE        CLEAR     64  61  90 S8        30.01S
COFFEYVILLE    CLEAR     65  61  87 S8        30.02S
HUTCHINSON     CLEAR     66  59  78 S7        30.01S
MEDICINE LODGE   N/A     71  62  73 S5        30.02R
NEWTON         CLEAR     70  57  64 SW10      30.02F
PARSONS        CLEAR     66  62  87 S6        30.03S
WICHITA INTL   CLEAR     66  59  78 S6        30.01S
WICHITA JABRA  CLEAR     67  60  78 S9        30.01S
WICHITA MCCONL CLEAR     67  64  91 S8        30.02S
WINFIELD       CLEAR     67  62  84 SE5       30.03S
$$

KSZ007>012-019>026-033>040-048>060-102>105-250300-
NORTHEAST KANSAS

CITY           SKY/WX    TMP DP  RH WIND       PRES   REMARKS
CONCORDIA      CLEAR     65  51  60 W5        29.97R
EMPORIA        CLEAR     65  61  87 S8        29.99R
LAWRENCE       CLEAR     62  58  86 CALM      29.96R
MANHATTAN      CLEAR     68  62  81 SW5       29.96R
MARYSVILLE     CLEAR     63  61  94 CALM      29.97R
OLATHE IND     CLEAR     66  61  84 S10       29.98R
OLATHE EXE     PTCLDY    67  62  84 SW9       29.97R
SALINA         CLEAR     65  59  81 S8        29.98R
TOPEKA BILLARD CLEAR     64  60  87 CALM      29.96R
TOPEKA FORBES  CLEAR     65  59  81 SW8       29.96R
$$



USA.gov is the U.S. government's official web portal to all federal, state and local government web resources and services.